This demonstration page uses our WeatherBlox Daily Observations layout. Learn more.

Left ArrowRight Arrow

Hourly Observations for October 20, 2016

Temp ( °F °C ) Dew Point ( °F °C ) Humidity (%) Winds ( mph kmh ) Pressure ( in mb ) Visibility ( mi km ) Precip ( " mm )
12:15 am 00:15 Cloudy 73 23 64 18 74 74 NNE 5 7 30.09 1019 10 16 N/A
12:35 am 00:35 Mostly Cloudy 72 22 64 18 78 78 N N/A 30.09 1019 10 16 N/A
12:55 am 00:55 Cloudy 72 22 64 18 78 78 N 5 7 30.06 1018 10 16 N/A
1:15 am 01:15 Cloudy 72 22 64 18 78 78 N 3 6 30.06 1018 10 16 N/A
1:35 am 01:35 Cloudy 72 22 64 18 78 78 WNW 6 9 30.06 1018 10 16 N/A
1:55 am 01:55 Cloudy 72 22 64 18 78 78 NNW 3 6 30.06 1018 10 16 N/A
2:15 am 02:15 Cloudy 72 22 64 18 78 78 NW 5 7 30.06 1018 10 16 N/A
2:35 am 02:35 Cloudy 72 22 64 18 78 78 N 5 7 30.06 1018 10 16 N/A
2:55 am 02:55 Cloudy 72 22 66 19 83 83 NE 5 7 30.06 1018 10 16 N/A
3:15 am 03:15 Cloudy 72 22 66 19 83 83 WNW 3 6 30.06 1018 10 16 N/A
3:35 am 03:35 Cloudy 72 22 68 20 88 88 WSW 3 6 30.06 1018 10 16 N/A
3:55 am 03:55 Cloudy 70 21 66 19 88 88 NNE 3 6 30.06 1018 10 16 N/A
4:15 am 04:15 Cloudy 70 21 66 19 88 88 NW 5 7 30.06 1018 10 16 N/A
4:35 am 04:35 Cloudy 70 21 64 18 83 83 WNW 6 9 30.06 1018 10 16 N/A
4:55 am 04:55 Cloudy 70 21 64 18 83 83 NW 5 7 30.06 1018 10 16 N/A
5:15 am 05:15 Cloudy 70 21 66 19 88 88 N 5 7 30.06 1018 10 16 N/A
5:35 am 05:35 Cloudy 70 21 66 19 88 88 ENE 3 6 30.06 1018 10 16 N/A
5:55 am 05:55 Mostly Cloudy 70 21 64 18 83 83 NNE 5 7 30.06 1018 10 16 N/A
6:15 am 06:15 Partly Cloudy 68 20 64 18 88 88 NE 3 6 30.06 1018 10 16 N/A
6:35 am 06:35 Mostly Cloudy 68 20 64 18 88 88 ENE 3 6 30.06 1018 10 16 N/A
6:55 am 06:55 Partly Cloudy 68 20 63 17 83 83 NNE 3 6 30.06 1018 10 16 N/A
7:15 am 07:15 Partly Cloudy 68 20 63 17 83 83 N N/A 30.06 1018 10 16 N/A
7:35 am 07:35 Mostly Cloudy 68 20 63 17 83 83 NE 3 6 30.06 1018 10 16 N/A
7:55 am 07:55 Mostly Cloudy 68 20 63 17 83 83 N N/A 30.06 1018 10 16 N/A
8:15 am 08:15 Mostly Cloudy 68 20 63 17 83 83 NNW 3 6 30.09 1019 10 16 N/A
8:35 am 08:35 Partly Cloudy 70 21 63 17 78 78 ENE 3 6 30.09 1019 10 16 N/A
8:55 am 08:55 Partly Cloudy 70 21 63 17 78 78 SE 3 6 30.09 1019 10 16 N/A
9:15 am 09:15 Mostly Cloudy 70 21 63 17 78 78 SE 3 6 30.09 1019 10 16 N/A
9:35 am 09:35 Cloudy 70 21 63 17 78 78 SSE 3 6 30.09 1019 10 16 N/A
9:55 am 09:55 Cloudy 70 21 63 17 78 78 N N/A 30.09 1019 10 16 N/A
10:15 am 10:15 Mostly Cloudy 70 21 63 17 78 78 N N/A 30.06 1018 10 16 N/A
10:35 am 10:35 Mostly Cloudy 72 22 63 17 73 73 NW 5 7 30.06 1018 10 16 N/A
10:55 am 10:55 Partly Cloudy 72 22 64 18 78 78 N N/A 30.06 1018 10 16 N/A
11:15 am 11:15 Sunny 73 23 64 18 74 74 S 5 7 30.06 1018 10 16 N/A
11:35 am 11:35 Sunny 75 24 64 18 69 69 E 5 7 30.06 1018 10 16 N/A
11:55 am 11:55 Sunny 77 25 66 19 69 69 SE 6 9 30.03 1017 10 16 N/A
12:15 pm 12:15 Sunny 79 26 66 19 65 65 S 6 9 30.03 1017 10 16 N/A
12:35 pm 12:35 Sunny 79 26 68 20 70 70 S 13 20 30.03 1017 10 16 N/A
12:55 pm 12:55 Partly Cloudy 81 27 68 20 66 66 S 12 19 30.00 1016 10 16 N/A
1:15 pm 13:15 Sunny 81 27 70 21 70 70 S 10 17 30.00 1016 10 16 N/A
1:35 pm 13:35 Partly Cloudy 82 28 70 21 66 66 S 10 17 30.00 1016 10 16 N/A
1:55 pm 13:55 Partly Cloudy 82 28 70 21 66 66 S 12 19 29.97 1015 10 16 N/A
2:15 pm 14:15 Partly Cloudy 82 28 70 21 66 66 SSE 9 15 29.97 1015 10 16 N/A
2:35 pm 14:35 Partly Cloudy 82 28 70 21 66 66 SE 10 17 29.97 1015 10 16 N/A
2:55 pm 14:55 Mostly Cloudy 84 29 70 21 62 62 SSE 9 15 29.97 1015 10 16 N/A
3:15 pm 15:15 Partly Cloudy 82 28 70 21 66 66 SSE 7 11 29.94 1014 10 16 N/A
3:35 pm 15:35 Partly Cloudy 84 29 70 21 62 62 SE 10 17 29.94 1014 10 16 N/A
3:55 pm 15:55 Partly Cloudy 84 29 70 21 62 62 SSE 9 15 29.94 1014 10 16 N/A
4:15 pm 16:15 Partly Cloudy 84 29 70 21 62 62 S 9 15 29.94 1014 10 16 N/A
4:35 pm 16:35 Mostly Cloudy 84 29 70 21 62 62 SSE 13 20 29.94 1014 10 16 N/A
4:55 pm 16:55 Partly Cloudy 82 28 70 21 66 66 SSE 12 19 29.91 1013 10 16 N/A
5:15 pm 17:15 Partly Cloudy 82 28 70 21 66 66 SSE 12 19 29.91 1013 10 16 N/A
5:35 pm 17:35 Sunny 82 28 70 21 66 66 SSE 10 17 29.91 1013 10 16 N/A
5:55 pm 17:55 Sunny 81 27 72 22 74 74 SSE 8 13 29.91 1013 10 16 N/A
6:15 pm 18:15 Sunny 81 27 72 22 74 74 SSE 8 13 29.91 1013 10 16 N/A
6:35 pm 18:35 Clear 81 27 72 22 74 74 SSE 8 13 29.91 1013 10 16 N/A
6:55 pm 18:55 Clear 79 26 70 21 74 74 SSE 9 15 29.91 1013 10 16 N/A
7:15 pm 19:15 Clear 79 26 70 21 74 74 SE 10 17 29.91 1013 10 16 N/A
7:35 pm 19:35 Clear 79 26 70 21 74 74 SSE 10 17 29.91 1013 10 16 N/A
7:55 pm 19:55 Clear 79 26 70 21 74 74 SSE 14 22 29.91 1013 10 16 N/A
8:15 pm 20:15 Clear 77 25 70 21 79 79 SSE 14 22 29.91 1013 10 16 N/A
8:35 pm 20:35 Clear 77 25 70 21 79 79 SSE 13 20 29.91 1013 10 16 N/A
8:55 pm 20:55 Clear 77 25 70 21 79 79 SSE 16 26 29.91 1013 10 16 N/A
9:15 pm 21:15 Clear 75 24 70 21 83 83 SSE 15 24 29.91 1013 10 16 N/A
9:35 pm 21:35 Clear 75 24 70 21 83 83 SSE 13 20 29.91 1013 10 16 N/A
9:55 pm 21:55 Clear 73 23 70 21 89 89 S 14 22 29.91 1013 10 16 N/A
10:15 pm 22:15 Clear 73 23 70 21 89 89 S 15 24 29.88 1012 10 16 N/A
10:35 pm 22:35 Clear 73 23 70 21 89 89 S 14 22 29.88 1012 10 16 N/A
10:55 pm 22:55 Clear 73 23 70 21 89 89 S 15 24 29.88 1012 10 16 N/A
11:15 pm 23:15 Clear 72 22 70 21 94 94 S 15 24 29.88 1012 10 16 N/A
11:35 pm 23:35 Clear 72 22 68 20 88 88 S 14 22 29.88 1012 10 16 N/A
11:55 pm 23:55 Clear 72 22 68 20 88 88 S 15 24 29.88 1012 10 16 N/A

Powered by AerisWeather